| time (UTC) | temp F | wind direction | speed knots | gust knots | rain 1hr in | rain 24hr in | rain mn in | humidity % | barometer mb |
| 20260503220624 | 52 | 197 | 0.9 | 4.3 | 0.10 | 1.59 | 0.80 | 98 | 1013.7 |
| 20260503215703 | 51 | 247 | 0.9 | 7.0 | 0.10 | 1.56 | 0.76 | 98 | 1013.5 |
| 20260503214803 | 51 | 166 | 0.9 | 7.0 | 0.13 | 1.55 | 0.75 | 98 | 1013.4 |
| 20260503213924 | 51 | 228 | 0.9 | 5.2 | 0.11 | 1.54 | 0.72 | 98 | 1013.3 |
| 20260503213024 | 51 | 222 | 0.9 | 8.7 | 0.10 | 1.55 | 0.72 | 97 | 1013.4 |
| 20260503212403 | 51 | 214 | 0.9 | 8.7 | 0.12 | 1.56 | 0.72 | 97 | 1013.2 |
| 20260503211503 | 51 | 212 | 0.9 | 8.7 | 0.13 | 1.57 | 0.72 | 97 | 1013.2 |
| 20260503210603 | 51 | 219 | 0.9 | 3.5 | 0.14 | 1.57 | 0.71 | 98 | 1012.8 |
| 20260503205724 | 51 | 159 | 0.9 | 6.1 | 0.11 | 1.54 | 0.66 | 97 | 1012.6 |
| 20260503204803 | 51 | 269 | 1.7 | 5.2 | 0.09 | 1.50 | 0.61 | 98 | 1012.6 |
| 20260503203924 | 51 | 243 | 0.9 | 5.2 | 0.09 | 1.54 | 0.61 | 98 | 1012.6 |
| 20260503203003 | 51 | 149 | 0.9 | 5.2 | 0.09 | 1.55 | 0.61 | 97 | 1012.4 |
| 20260503202403 | 52 | 189 | 0.9 | 5.2 | 0.08 | 1.54 | 0.60 | 97 | 1012.4 |
| 20260503201503 | 51 | 42 | 0.9 | 8.7 | 0.07 | 1.53 | 0.59 | 97 | 1012.3 |
| 20260503200603 | 51 | 210 | 0.9 | 6.1 | 0.04 | 1.50 | 0.55 | 97 | 1012.2 |
| 20260503195703 | 51 | 204 | 0.9 | 5.2 | 0.08 | 1.50 | 0.55 | 97 | 1012.1 |
| 20260503194803 | 51 | 222 | 0.9 | 7.0 | 0.06 | 1.48 | 0.53 | 97 | 1012.0 |
| 20260503193924 | 51 | 342 | 0.9 | 7.8 | 0.06 | 1.48 | 0.53 | 97 | 1012.1 |
| 20260503193003 | 51 | 231 | 0.9 | 6.1 | 0.06 | 1.47 | 0.52 | 97 | 1011.8 |
| 20260503192403 | 51 | 266 | 0.9 | 11.3 | 0.06 | 1.47 | 0.52 | 97 | 1011.9 |
| 20260503191503 | 51 | 267 | 0.9 | 11.3 | 0.06 | 1.47 | 0.52 | 97 | 1011.8 |
| 20260503190604 | 51 | 260 | 1.7 | 15.6 | 0.05 | 1.46 | 0.51 | 97 | 1011.9 |
| 20260503185724 | 51 | 179 | 1.7 | 15.6 | 0.02 | 1.43 | 0.47 | 97 | 1011.9 |
| 20260503184803 | 51 | 256 | 1.7 | 9.6 | 0.05 | 1.43 | 0.47 | 97 | 1011.8 |
| 20260503183903 | 51 | 227 | 0.9 | 4.3 | 0.05 | 1.42 | 0.46 | 97 | 1011.9 |
| 20260503183003 | 51 | 263 | 1.7 | 7.0 | 0.05 | 1.42 | 0.46 | 97 | 1011.5 |
| 20260503182403 | 51 | 274 | 1.7 | 9.6 | 0.05 | 1.42 | 0.46 | 97 | 1011.6 |
| 20260503181504 | 51 | 275 | 0.9 | 13.0 | 0.05 | 1.42 | 0.46 | 97 | 1011.7 |
| 20260503180603 | 51 | 7 | 1.7 | 10.4 | 0.05 | 1.43 | 0.46 | 97 | 1011.6 |
| 20260503175703 | 51 | 195 | 1.7 | 7.8 | 0.03 | 1.42 | 0.45 | 97 | 1011.8 |
| 20260503174803 | 51 | 208 | 1.7 | 6.1 | 0.01 | 1.40 | 0.43 | 97 | 1011.8 |
| 20260503173903 | 51 | 3 | 1.7 | 9.6 | 0.00 | 1.39 | 0.42 | 97 | 1011.7 |
| 20260503173003 | 51 | 54 | 0.9 | 6.1 | 0.01 | 1.41 | 0.42 | 97 | 1011.8 |
| 20260503172403 | 51 | 260 | 1.7 | 10.4 | 0.01 | 1.41 | 0.42 | 97 | 1011.9 |
| 20260503171524 | 51 | 299 | 1.7 | 8.7 | 0.01 | 1.42 | 0.42 | 97 | 1011.9 |
| 20260503170603 | 51 | 247 | 1.7 | 10.4 | 0.01 | 1.43 | 0.42 | 97 | 1011.9 |
| 20260503150603 | 50 | 229 | 0.9 | 7.0 | 0.34 | 1.39 | 0.30 | 97 | 1012.5 |
| 20260503130603 | 51 | 15 | 0.9 | 7.0 | 0.06 | 0.93 | 0.93 | 97 | 1013.0 |
| 20260503110603 | 51 | 26 | 2.6 | 10.4 | 0.02 | 0.87 | 0.87 | 97 | 1012.7 |
| 20260503081524 | 53 | 6 | 2.6 | 12.2 | 0.01 | 0.35 | 0.35 | 89 | 1011.5 |
| 20260503080603 | 53 | 48 | 2.6 | 12.2 | 0.01 | 0.35 | 0.35 | 90 | 1011.3 |
| 20260503072403 | 53 | 16 | 2.6 | 7.0 | 0.00 | 0.35 | 0.34 | 91 | 1011.2 |
| 20260503054803 | 55 | 51 | 2.6 | 12.2 | 0.01 | 0.50 | 0.31 | 81 | 1011.4 |
| 20260503053904 | 55 | 81 | 3.5 | 8.7 | 0.01 | 0.56 | 0.31 | 77 | 1010.9 |
| 20260503053003 | 56 | 64 | 3.5 | 17.4 | 0.01 | 0.61 | 0.31 | 76 | 1010.9 |
| 20260503052424 | 56 | 95 | 2.6 | 13.0 | 0.00 | 0.61 | 0.31 | 75 | 1011.0 |
| 20260503051503 | 56 | 34 | 2.6 | 9.6 | 0.00 | 0.61 | 0.31 | 75 | 1010.9 |
| 20260503050624 | 55 | 25 | 3.5 | 13.0 | 0.00 | 0.65 | 0.31 | 79 | 1010.8 |
| 20260503045703 | 55 | 78 | 2.6 | 10.4 | 0.00 | 0.65 | 0.31 | 78 | 1010.8 |
| 20260503044804 | 56 | 57 | 2.6 | 10.4 | 0.00 | 0.67 | 0.31 | 77 | 1010.8 |
| 20260503043903 | 55 | 44 | 3.5 | 10.4 | 0.00 | 0.71 | 0.31 | 77 | 1010.8 |
| 20260503043004 | 55 | 28 | 1.7 | 8.7 | 0.00 | 0.73 | 0.31 | 78 | 1010.7 |
| 20260503042403 | 55 | 60 | 2.6 | 11.3 | 0.00 | 0.79 | 0.31 | 78 | 1010.8 |
| 20260503041525 | 55 | 66 | 3.5 | 13.9 | 0.00 | 0.81 | 0.31 | 77 | 1010.9 |
| 20260503040603 | 55 | 22 | 2.6 | 13.9 | 0.00 | 0.81 | 0.31 | 78 | 1010.9 |
| 20260503035703 | 56 | 51 | 3.5 | 13.9 | 0.00 | 0.82 | 0.31 | 78 | 1011.0 |
| 20260503034804 | 56 | 86 | 2.6 | 9.6 | 0.00 | 0.83 | 0.31 | 77 | 1011.1 |
| 20260503033924 | 55 | 63 | 2.6 | 8.7 | 0.00 | 0.84 | 0.31 | 80 | 1010.9 |
| 20260503033003 | 55 | 61 | 3.5 | 11.3 | 0.00 | 0.85 | 0.31 | 81 | 1011.2 |
| 20260503032403 | 55 | 50 | 3.5 | 15.6 | 0.00 | 0.86 | 0.31 | 82 | 1011.1 |
| 20260503031503 | 54 | 49 | 2.6 | 11.3 | 0.00 | 0.88 | 0.31 | 84 | 1011.1 |
| 20260503030603 | 54 | 4 | 3.5 | 12.2 | 0.00 | 0.90 | 0.31 | 85 | 1010.9 |
| 20260503025703 | 54 | 53 | 2.6 | 10.4 | 0.00 | 0.90 | 0.31 | 83 | 1011.1 |
| 20260503024803 | 54 | 58 | 3.5 | 12.2 | 0.00 | 0.90 | 0.31 | 81 | 1011.2 |
| 20260503023924 | 53 | 18 | 3.5 | 12.2 | 0.00 | 0.90 | 0.31 | 86 | 1011.1 |
| 20260503023003 | 52 | 35 | 3.5 | 15.6 | 0.00 | 0.90 | 0.31 | 93 | 1011.2 |
| 20260503022403 | 52 | 29 | 3.5 | 15.6 | 0.00 | 0.90 | 0.31 | 94 | 1011.3 |
| 20260503021503 | 52 | 25 | 3.5 | 14.8 | 0.00 | 0.90 | 0.31 | 94 | 1011.4 |
| 20260503020603 | 52 | 11 | 2.6 | 12.2 | 0.00 | 0.90 | 0.31 | 95 | 1011.5 |
| 20260503015725 | 51 | 35 | 3.5 | 14.8 | 0.00 | 0.90 | 0.31 | 94 | 1011.4 |
| 20260503014804 | 51 | 57 | 2.6 | 9.6 | 0.00 | 0.90 | 0.31 | 95 | 1011.2 |
| 20260503013903 | 51 | 52 | 3.5 | 12.2 | 0.00 | 0.90 | 0.31 | 95 | 1011.4 |
| 20260503013004 | 51 | 67 | 1.7 | 12.2 | 0.00 | 0.90 | 0.31 | 94 | 1011.2 |
| 20260503012424 | 51 | 70 | 2.6 | 8.7 | 0.00 | 0.90 | 0.31 | 95 | 1011.4 |
| 20260503011503 | 51 | 46 | 2.6 | 8.7 | 0.00 | 0.90 | 0.31 | 95 | 1011.4 |
| 20260503010603 | 50 | 79 | 2.6 | 7.8 | 0.00 | 0.90 | 0.31 | 95 | 1011.3 |
| 20260503005724 | 50 | 28 | 3.5 | 12.2 | 0.00 | 0.90 | 0.31 | 95 | 1011.3 |
| 20260503004803 | 50 | 29 | 3.5 | 14.8 | 0.00 | 0.90 | 0.31 | 95 | 1011.2 |
| 20260503003903 | 51 | 25 | 2.6 | 13.0 | 0.00 | 0.90 | 0.31 | 95 | 1011.3 |
| 20260503003025 | 51 | 50 | 1.7 | 7.8 | 0.00 | 0.90 | 0.31 | 96 | 1011.1 |
| 20260503002403 | 51 | 43 | 2.6 | 7.8 | 0.00 | 0.90 | 0.31 | 96 | 1011.2 |
| 20260503001503 | 50 | 17 | 3.5 | 10.4 | 0.00 | 0.90 | 0.31 | 96 | 1011.1 |
| 20260503000603 | 50 | 61 | 2.6 | 10.4 | 0.00 | 0.90 | 0.31 | 95 | 1011.0 |
| 20260502235703 | 50 | 62 | 2.6 | 10.4 | 0.00 | 0.91 | 0.31 | 96 | 1010.9 |
| 20260502234824 | 50 | 52 | 2.6 | 12.2 | 0.00 | 0.91 | 0.31 | 96 | 1011.0 |
| 20260502233925 | 50 | 16 | 2.6 | 12.2 | 0.00 | 0.92 | 0.31 | 96 | 1011.1 |
| 20260502233024 | 49 | 66 | 2.6 | 11.3 | 0.00 | 0.97 | 0.31 | 96 | 1011.2 |
| 20260502232403 | 49 | 52 | 2.6 | 11.3 | 0.00 | 0.98 | 0.31 | 96 | 1011.4 |
| 20260502231525 | 49 | 355 | 2.6 | 9.6 | 0.01 | 1.01 | 0.31 | 96 | 1011.4 |
| 20260502230603 | 49 | 54 | 2.6 | 7.0 | 0.01 | 1.01 | 0.31 | 96 | 1011.5 |
| 20260502225704 | 49 | 3 | 2.6 | 8.7 | 0.01 | 1.01 | 0.31 | 97 | 1011.6 |
| 20260502224803 | 49 | 19 | 1.7 | 7.0 | 0.02 | 1.01 | 0.31 | 97 | 1011.5 |
| 20260502223903 | 48 | 356 | 2.6 | 7.0 | 0.02 | 1.01 | 0.31 | 97 | 1011.3 |
| 20260502223004 | 48 | 27 | 1.7 | 9.6 | 0.05 | 1.01 | 0.31 | 97 | 1011.4 |
| 20260502222424 | 48 | 35 | 1.7 | 8.7 | 0.06 | 1.01 | 0.31 | 97 | 1011.3 |
| 20260502221503 | 48 | 36 | 1.7 | 8.7 | 0.06 | 1.00 | 0.30 | 97 | 1011.4 |